User: anonymous   Login
Location: Unspecified
(0.0000°N, 0.0000°E)
Time: 22:52:39
(UTC+00:00)
Language:

Injun 5 (Explorer 40) - Orbit

View from above orbital plane
View from above orbital plane
View from above satellite
View from above satellite

Ground track
Ground track

The orbit data is extracted from the following two-line orbital elements,

1  3338U 68066B   17113.60638651 +.00000088 +00000-0 +95666-4 0  9993
2  3338 080.6596 120.0795 1131387 298.6156 050.5657 12.22817518169841
Epoch (UTC): 23 April 2017 14:33:11
Eccentricity: 0.1131387
inclination: 80.6596°
perigee height: 680 km
apogee height: 2480 km
right ascension of ascending node: 120.0795°
argument of perigee: 298.6156°
revolutions per day: 12.22817518
mean anomaly at epoch: 50.5657°
orbit number at epoch: 16984

The dashed part of the orbit path shows where the satellite is in the earth's shadow,  

DLR